When you browse on this site, cookies collect data to enhance your experience and personalize the content and advertising you see.
Visit our Privacy Policy to learn more. By continuing to use the site, you agree to this use of cookies and data.
  • In Schweiz
  • Länderverzeichnis
  • Für 7 Tage
  • Wassertemperatur
  • Wetterkarte
  • Widgets
  • user-avatar
    Anmelden

    Stündliche Wetter Prutz

    Heute, 4 Juni, Donnerstag

    Zeit Temperatur Niederschläge Wind Luftdruck Luftfeuchtigkeit
    00:00 +7°C° 0 mm 2 m/S 625 mmHg 88%
    01:00 +7°C° 0 mm 2 m/S 624 mmHg 89%
    02:00 +7°C° 0 mm 2 m/S 624 mmHg 89%
    03:00 +7°C° 0 mm 2 m/S 624 mmHg 90%
    04:00 +7°C° 0 mm 2 m/S 623 mmHg 91%
    05:00 +8°C° 0 mm 2 m/S 623 mmHg 88%
    06:00 +9°C° 0 mm 2 m/S 623 mmHg 86%
    07:00 +10°C° 0 mm 2 m/S 624 mmHg 83%
    08:00 +10°C° 0.1 mm 2 m/S 624 mmHg 80%
    09:00 +12°C° 0.1 mm 2 m/S 624 mmHg 77%
    10:00 +13°C° 0.1 mm 2 m/S 624 mmHg 74%
    11:00 +13°C° 0.3 mm 2 m/S 624 mmHg 76%
    12:00 +13°C° 0.3 mm 2 m/S 624 mmHg 78%
    13:00 +13°C° 0.3 mm 2 m/S 624 mmHg 79%
    14:00 +12°C° 1.2 mm 2 m/S 623 mmHg 84%
    15:00 +10°C° 1.2 mm 2 m/S 623 mmHg 89%
    16:00 +9°C° 1.2 mm 2 m/S 622 mmHg 93%
    17:00 +8°C° 1.2 mm 2 m/S 622 mmHg 94%
    18:00 +9°C° 1.2 mm 1 m/S 621 mmHg 95%
    19:00 +8°C° 1.2 mm 1 m/S 621 mmHg 96%
    20:00 +8°C° 1.5 mm 1 m/S 621 mmHg 96%
    21:00 +7°C° 1.5 mm 1 m/S 621 mmHg 97%
    22:00 +7°C° 1.5 mm 1 m/S 620 mmHg 97%
    23:00 +7°C° 0.9 mm 1 m/S 620 mmHg 97%

    Morgen, 5 Juni, Freitag

    Zeit Temperatur Niederschläge Wind Luftdruck Luftfeuchtigkeit
    00:00 +7°C° 0.9 mm 1 m/S 620 mmHg 97%
    01:00 +6°C° 0.9 mm 1 m/S 620 mmHg 97%
    02:00 +6°C° 0.3 mm 1 m/S 620 mmHg 97%
    03:00 +6°C° 0.3 mm 1 m/S 620 mmHg 97%
    04:00 +6°C° 0.3 mm 1 m/S 621 mmHg 97%
    05:00 +6°C° 0.3 mm 1 m/S 621 mmHg 97%
    06:00 +5°C° 0.3 mm 2 m/S 621 mmHg 96%
    07:00 +6°C° 0.3 mm 2 m/S 622 mmHg 96%
    08:00 +6°C° 0.2 mm 2 m/S 622 mmHg 93%
    09:00 +7°C° 0.2 mm 2 m/S 622 mmHg 90%
    10:00 +8°C° 0.2 mm 2 m/S 623 mmHg 86%
    11:00 +9°C° 0.2 mm 2 m/S 623 mmHg 81%
    12:00 +9°C° 0.2 mm 2 m/S 623 mmHg 75%
    13:00 +10°C° 0.2 mm 2 m/S 624 mmHg 69%
    14:00 +12°C° 0.1 mm 2 m/S 624 mmHg 68%
    15:00 +12°C° 0.1 mm 2 m/S 624 mmHg 67%
    16:00 +12°C° 0.1 mm 2 m/S 624 mmHg 66%
    17:00 +10°C° 0.1 mm 2 m/S 624 mmHg 70%
    18:00 +11°C° 0.1 mm 1 m/S 624 mmHg 75%
    19:00 +10°C° 0.1 mm 1 m/S 624 mmHg 80%
    20:00 +9°C° 0 mm 1 m/S 624 mmHg 84%
    21:00 +7°C° 0 mm 1 m/S 624 mmHg 88%
    22:00 +5°C° 0 mm 1 m/S 624 mmHg 92%
    23:00 +5°C° 0 mm 2 m/S 624 mmHg 90%

    übermorgen, 6 Juni, Samstag

    Zeit Temperatur Niederschläge Wind Luftdruck Luftfeuchtigkeit
    00:00 +5°C° 0 mm 2 m/S 624 mmHg 88%
    01:00 +5°C° 0 mm 2 m/S 625 mmHg 87%
    02:00 +5°C° 0 mm 2 m/S 625 mmHg 86%
    03:00 +5°C° 0 mm 2 m/S 625 mmHg 85%
    04:00 +5°C° 0 mm 2 m/S 625 mmHg 85%
    05:00 +6°C° 0 mm 2 m/S 626 mmHg 81%
    06:00 +8°C° 0 mm 2 m/S 626 mmHg 76%
    07:00 +9°C° 0 mm 2 m/S 627 mmHg 72%
    08:00 +12°C° 0 mm 2 m/S 628 mmHg 68%
    09:00 +13°C° 0 mm 2 m/S 628 mmHg 65%
    10:00 +15°C° 0 mm 2 m/S 629 mmHg 61%
    11:00 +15°C° 0.3 mm 2 m/S 629 mmHg 62%
    12:00 +15°C° 0.3 mm 2 m/S 629 mmHg 64%
    13:00 +15°C° 0.3 mm 2 m/S 629 mmHg 65%
    14:00 +15°C° 1.1 mm 2 m/S 629 mmHg 71%
    15:00 +14°C° 1.1 mm 2 m/S 628 mmHg 77%
    16:00 +14°C° 1.1 mm 2 m/S 628 mmHg 83%
    17:00 +13°C° 1.2 mm 1 m/S 628 mmHg 87%
    18:00 +12°C° 1.2 mm 1 m/S 628 mmHg 91%
    19:00 +11°C° 1.2 mm 1 m/S 628 mmHg 96%
    20:00 +10°C° 0.7 mm 1 m/S 628 mmHg 96%
    21:00 +10°C° 0.7 mm 1 m/S 628 mmHg 97%
    22:00 +9°C° 0.7 mm 1 m/S 628 mmHg 98%
    23:00 +9°C° 0.1 mm 1 m/S 628 mmHg 98%

    7 Juni, Sonntag

    Zeit Temperatur Niederschläge Wind Luftdruck Luftfeuchtigkeit
    00:00 +9°C° 0.1 mm 1 m/S 628 mmHg 97%
    01:00 +9°C° 0.1 mm 1 m/S 628 mmHg 97%
    02:00 +9°C° 0.1 mm 1 m/S 628 mmHg 97%
    03:00 +9°C° 0.1 mm 1 m/S 627 mmHg 96%
    04:00 +9°C° 0.1 mm 1 m/S 627 mmHg 96%
    05:00 +9°C° 0.3 mm 1 m/S 627 mmHg 95%
    06:00 +9°C° 0.3 mm 1 m/S 628 mmHg 95%
    07:00 +10°C° 0.3 mm 1 m/S 628 mmHg 94%
    08:00 +10°C° 0.9 mm 1 m/S 628 mmHg 94%
    09:00 +10°C° 0.9 mm 1 m/S 629 mmHg 95%
    10:00 +10°C° 0.9 mm 1 m/S 629 mmHg 95%
    11:00 +10°C° 1.2 mm 1 m/S 629 mmHg 96%
    12:00 +9°C° 1.2 mm 2 m/S 628 mmHg 96%
    13:00 +8°C° 1.2 mm 2 m/S 628 mmHg 97%
    14:00 +7°C° 2.9 mm 2 m/S 628 mmHg 98%
    15:00 +6°C° 2.9 mm 2 m/S 628 mmHg 98%
    16:00 +5°C° 2.9 mm 2 m/S 628 mmHg 98%
    17:00 +6°C° 2.5 mm 1 m/S 628 mmHg 98%
    18:00 +6°C° 2.5 mm 1 m/S 628 mmHg 98%
    19:00 +5°C° 2.5 mm 1 m/S 629 mmHg 98%
    20:00 +5°C° 0.3 mm 1 m/S 629 mmHg 98%
    21:00 +6°C° 0.3 mm 1 m/S 629 mmHg 98%
    22:00 +6°C° 0.3 mm 1 m/S 630 mmHg 97%
    23:00 +6°C° 0.2 mm 1 m/S 629 mmHg 97%

    8 Juni, Montag

    Zeit Temperatur Niederschläge Wind Luftdruck Luftfeuchtigkeit
    00:00 +6°C° 0.2 mm 1 m/S 629 mmHg 98%
    01:00 +6°C° 0.2 mm 1 m/S 629 mmHg 98%
    02:00 +6°C° 0.1 mm 1 m/S 629 mmHg 98%
    03:00 +6°C° 0.1 mm 1 m/S 629 mmHg 98%
    04:00 +6°C° 0.1 mm 1 m/S 629 mmHg 98%
    05:00 +6°C° 0 mm 1 m/S 629 mmHg 97%
    06:00 +6°C° 0 mm 1 m/S 629 mmHg 97%
    07:00 +7°C° 0 mm 1 m/S 629 mmHg 96%
    08:00 +7°C° 0 mm 1 m/S 630 mmHg 94%
    09:00 +8°C° 0 mm 1 m/S 630 mmHg 93%
    10:00 +9°C° 0 mm 1 m/S 630 mmHg 92%
    11:00 +9°C° 0.1 mm 1 m/S 630 mmHg 91%
    12:00 +9°C° 0.1 mm 1 m/S 630 mmHg 91%
    13:00 +8°C° 0.1 mm 2 m/S 630 mmHg 90%
    14:00 +8°C° 0.1 mm 2 m/S 630 mmHg 90%
    15:00 +9°C° 0.1 mm 2 m/S 630 mmHg 90%
    16:00 +9°C° 0.1 mm 2 m/S 630 mmHg 91%
    17:00 +9°C° 0.2 mm 1 m/S 630 mmHg 92%
    18:00 +9°C° 0.2 mm 1 m/S 630 mmHg 93%
    19:00 +9°C° 0.2 mm 1 m/S 630 mmHg 94%
    20:00 +8°C° 1 mm 1 m/S 630 mmHg 95%
    21:00 +8°C° 1 mm 1 m/S 630 mmHg 96%
    22:00 +6°C° 1 mm 0 m/S 630 mmHg 98%
    23:00 +6°C° 1.6 mm 0 m/S 630 mmHg 98%

    9 Juni, Dienstag

    Zeit Temperatur Niederschläge Wind Luftdruck Luftfeuchtigkeit
    00:00 +6°C° 1.6 mm 0 m/S 630 mmHg 98%
    01:00 +6°C° 1.6 mm 0 m/S 630 mmHg 98%
    02:00 +6°C° 0.7 mm 0 m/S 630 mmHg 98%
    03:00 +6°C° 0.7 mm 0 m/S 630 mmHg 98%
    04:00 +6°C° 0.7 mm 0 m/S 630 mmHg 98%
    05:00 +7°C° 0.1 mm 1 m/S 630 mmHg 98%
    06:00 +7°C° 0.1 mm 1 m/S 631 mmHg 97%
    07:00 +8°C° 0.1 mm 1 m/S 631 mmHg 97%
    08:00 +8°C° 0.5 mm 1 m/S 631 mmHg 97%
    09:00 +8°C° 0.5 mm 1 m/S 631 mmHg 97%
    10:00 +8°C° 0.5 mm 1 m/S 631 mmHg 97%
    11:00 +8°C° 0.9 mm 1 m/S 631 mmHg 96%
    12:00 +8°C° 0.9 mm 1 m/S 631 mmHg 96%
    13:00 +8°C° 0.9 mm 1 m/S 631 mmHg 96%
    14:00 +8°C° 0.4 mm 1 m/S 631 mmHg 95%
    15:00 +8°C° 0.4 mm 1 m/S 631 mmHg 95%
    16:00 +9°C° 0.4 mm 1 m/S 631 mmHg 95%
    17:00 +8°C° 0.9 mm 1 m/S 631 mmHg 96%
    18:00 +8°C° 0.9 mm 1 m/S 631 mmHg 97%
    19:00 +8°C° 0.9 mm 1 m/S 631 mmHg 98%
    20:00 +8°C° 0.6 mm 1 m/S 631 mmHg 98%
    21:00 +6°C° 0.6 mm 0 m/S 632 mmHg 98%
    22:00 +6°C° 0.6 mm 0 m/S 632 mmHg 99%
    23:00 +7°C° 1.4 mm 1 m/S 632 mmHg 98%
    Mehr zeigen